星链-36346(STARLINK-36346)

导读

STARLINK-36346是美国太空探索技术公司(SpaceX)星链(Starlink)互联网卫星星座中的一颗卫星,于2026年2月15日由美国发射升空,属于星链项目低轨卫星部署计划的组成部分,将为全球范围提供高速低延迟的卫星互联网服务,补充和完善星链星座的全球覆盖与服务能力。

Basic Information
目录编号:
67818
目录名称:
STARLINK-36346
国际标识:
2026-032X
轨道中心:
EARTH
卫星名称:
星链-36346
卫星全名:
星链-36346(STARLINK-36346)
卫星状态:
在轨 (已飞行201 天)
发射日期:
2026-02-15 UTC
国别 :
美国 (US)
星等 :
--
Orbit Information
数据来源 国际轨道数据
星历时间: 2026-09-03T08:55:37+0800
1天前
查看轨道信息
半长轴: 6843.686km
偏心率: 0.0001792
轨道倾角: 97.286°
近地点辐角 99.539°
升交点赤经 72.760°
平近点角 260.606°
近地点: 464.322km
远地点: 466.776km
周期: 93.906分钟
每日圈数: 15.334433
Detailed Information
固有亮度:
5
最大亮度:
2.5
卫星平台:
Starlink V1.0
覆盖范围:
全球
运营商:
太空探索技术公司
运营商所在国:
美国
制造商(研发单位):
太空探索技术公司
制造商所在国:
美国
使用方式:
暂无
Satellite Introduction
Starlink 计划是 SpaceX 推出的全球卫星互联网项目,通过发射低轨道卫星,为全球尤其是偏远地区提供高速、低延迟的互联网服务。自 2019 年起,Starlink 已部署数千颗卫星,旨在缩小全球数字鸿沟,推动互联网普及。该项目还为军事、航空等行业提供通信支持,带来广泛经济效益。
2D Orbit Map
3D Orbit Map
Orbit Altitude Analysis Chart
Orbit Inclination Analysis Chart
Orbit Comprehensive Analysis Chart
View Comprehensive Chart
Conjunction Data List
Event ID Objects TCA Miss Dist (km) Collision Risk Probability Collision Risk Index (CRI) Action
CDM_260827-221504-783306-781821
2026-08-27T
22:15:41+0000
2.804 km
极远距离
1.337529E-6 低风险 0.38